Regional Weather Roundup
Issued by NWS

Home | Current Version | Previous Version | Graphics & Text | Print | Product List | Glossary On
Versions: 1 2 3 4 5 6 7 8 9 10 11 12 13 14 15 16 17 18 19 20 21 22 23 24 25 26 27 28 29 30 31 32 33 34 35 36 37 38 39 40 41 42 43 44 45 46 47 48 49 50
000
ASUS43 KFSD 311410
RWRSD

WEATHER ROUNDUP FOR SOUTH DAKOTA
NATIONAL WEATHER SERVICE SIOUX FALLS SD
900 AM CDT FRI OCT 31 2014

NOTE: "FAIR" INDICATES FEW OR NO CLOUDS BELOW 12,000 FEET WITH NO
SIGNIFICANT WEATHER AND/OR OBSTRUCTIONS TO VISIBILITY.


SDZ001>005-009-010-012>017-311500-
NORTHWEST AND NORTH CENTRAL SOUTH DAKOTA

CITY           SKY/WX    TMP DP  RH WIND       PRES   REMARKS
BUFFALO          N/A     31  29  92 SE24G32   30.23F WCI  17
FAITH            N/A     25  21  85 S21G26    30.41F WCI  11
MOBRIDGE       MOCLDY    23  18  81 SE10      30.51F WCI  12
$$

SDZ012>016-024>037-041>051-057-063-072>074-311500-
SOUTHWEST AND SOUTH CENTRAL SOUTH DAKOTA

CITY           SKY/WX    TMP DP  RH WIND       PRES   REMARKS
RAPID CTY ARPT CLOUDY    30  29  96 S21       30.37F FOG     WCI  17
PIERRE         FOG       17  15  92 E5        30.54F VSB<1/4 WCI  10
CUSTER         CLOUDY    29  26  89 VRB5      30.31F FOG     WCI  24
ELLSWORTH AFB  CLOUDY    31  29  95 S21G26    30.35  WCI  18
PHILIP         CLOUDY    29  23  78 SE9       30.48F WCI  20
PINE RIDGE     CLOUDY    29  27  92 SE9G20    30.41F WCI  20
SPEARFISH      FOG       28  28 100 W3        30.23F VSB<1/4
WINNER         FAIR      15  12  88 S6        30.54F WCI   6
$$

SDZ004>011-016>023-039-040-311500-
NORTHEAST SOUTH DAKOTA

CITY           SKY/WX    TMP DP  RH WIND       PRES   REMARKS
ABERDEEN       PTCLDY    14   9  80 NE3       30.60S
WATERTOWN      PTCLDY    17  14  88 N3        30.56R
SISSETON         N/A     20  16  84 CALM      30.61R
$$

SDZ017-020-022-023-036>040-048>070-311500-
SOUTHEAST SOUTH DAKOTA

CITY           SKY/WX    TMP DP  RH WIND       PRES   REMARKS
SIOUX FALLS    PTCLDY    23  18  81 N7        30.58R WCI  15
HURON          PTCLDY    15  10  80 CALM      30.59S
CHAMBERLAIN    PTCLDY    16  13  90 CALM      30.58R
MITCHELL       PTCLDY    17  15  92 NW5       30.60S WCI  10
YANKTON        PTCLDY    19  18  93 NW7       30.60R WCI  10
$$

ABBREVIATIONS USED IN REMARKS
   TC - TEMPERATURE IN CELSIUS
  WCI - WIND CHILL INDEX
   HX - HEAT INDEX
  VSB - VISIBILITY




USA.gov is the U.S. government's official web portal to all federal, state and local government web resources and services.